Location: Newark
(44.3681°N, 100.3364°W)
Time: 11:13:48
(UTC+00:00)

SR - Pass Details

Date: 28 February 2020
Orbit: 578 x 878 km, 66.7° (Epoch: 06 April)

Event Time Altitude Azimuth Distance (km) Brightness Sun altitude
Rises 03:15:58 0° 335° (NNW) 3,342 ? -30.7°
Reaches altitude 10° 03:19:46 10° 360° (N) 2,342 ? -31.3°
Enters shadow 03:20:47 12° 10° (N) 2,165 ? -31.5°
